#timestamp,LO_Frequency,Hit,StdDev 
1568923215.0,286047000.0,N
1568923215.9,286047000.0,N
1568923235.8,286047002.6,N
1568923255.6,286047000.1,N
1568923275.4,286047000.6,N
1568923295.3,286046998.1,N
1568923315.1,286047001.1,N
1568923335.9,286046998.1,N
1568923355.7,286046998.6,N
1568923375.5,286046998.6,N
1568923395.4,286046998.5,N
1568923415.2,286047000.8,N
1568923435.0,286047001.1,N
1568923435.9,286047001.1,N
1568923455.8,286046999.0,N
1568923475.6,286046999.4,N
1568923495.5,286046999.2,N
1568923515.3,286046998.9,N
1568923535.1,286047000.9,N
1568923555.9,286046999.7,N
1568923575.7,286046998.6,N
1568923595.6,286047000.6,N
1568923615.4,286046998.2,N
1568923635.2,286047000.3,N
1568923655.1,286047000.9,N
1568923656.0,286047000.9,N
1568923675.8,286047001.0,N
1568923695.7,286046998.2,N
1568923715.5,286046998.9,N
1568923735.3,286047000.0,N
1568923755.2,286047002.3,N
1568923775.0,286047000.9,N
1568923775.9,286047000.9,N
1568923795.8,286046998.5,N
1568923815.6,286046998.4,N
1568923835.4,286046998.4,N
1568923855.3,286046999.8,N
1568923875.1,286046999.8,N
1568923895.8,286047000.1,N
1568923915.7,286047000.4,N
1568923935.5,286047000.5,N
1568923955.4,286047002.8,N
1568923975.2,286047001.3,N
1568923995.0,286047001.9,N
1568923995.9,286047001.9,N
1568924015.8,286047001.3,N
1568924035.6,286047003.9,Y
1568924055.5,286047001.7,P
1568924075.3,286047002.2,N
1568924095.1,286047002.0,N
1568924115.9,286047002.7,Y
1568924135.7,286047000.6,P
1568924155.6,286047000.0,N
1568924175.4,286047000.0,N
1568924195.2,286047000.1,N
1568924215.1,286047000.5,N
1568924216.0,286047000.5,N
1568924235.8,286046998.2,Y
1568924255.6,286046998.3,P
1568924275.5,286046998.9,N
1568924295.3,286046999.2,N
1568924315.2,286046998.3,N
1568924335.9,286046998.3,N
1568924355.7,286046999.3,N
1568924375.6,286046999.5,N
1568924395.4,286046999.1,N
1568924415.3,286046996.5,Y
1568924435.1,286047000.7,P
1568924455.8,286047000.2,N
1568924475.7,286047001.1,N
1568924495.5,286047000.0,N
1568924515.4,286047000.6,N
1568924535.2,286047000.7,N
1568924555.0,286047000.4,N
1568924555.9,286047000.4,N
1568924575.8,286047002.4,Y
1568924595.6,286047002.7,P
1568924615.5,286047002.6,N
1568924635.3,286047000.5,N
1568924655.1,286047000.7,N
1568924675.9,286047000.3,N
1568924695.7,286047000.5,N
1568924715.5,286047000.3,N
1568924735.4,286047002.7,N
1568924755.2,286047002.7,N
1568924775.1,286047002.6,N
1568924776.0,286047002.6,N
1568924795.8,286047004.0,Y
1568924815.6,286047000.7,P
1568924835.5,286046998.1,P
1568924855.3,286046998.4,N
1568924875.2,286046998.6,N
1568924895.9,286047001.0,N
1568924915.7,286047000.2,N
1568924935.6,286046998.1,N
1568924955.4,286047000.9,N
1568924975.2,286046998.1,N
1568924995.1,286046999.2,N
1568924996.0,286046999.2,N
1568925015.8,286046998.8,N
1568925035.7,286046998.6,N
1568925055.5,286046998.2,N
1568925075.3,286046998.4,N
1568925095.2,286047000.6,N
1568925115.0,286046998.6,N
1568925115.9,286046998.6,N
1568925135.8,286046998.4,N
1568925155.6,286046998.3,N
1568925175.4,286047000.7,N
1568925195.3,286047000.0,N
1568925215.1,286047001.2,N
1568925235.8,286046998.7,N
1568925255.7,286046999.4,N
1568925275.5,286046998.8,N
1568925295.4,286047000.7,N
1568925315.2,286047001.1,N
1568925335.0,286047000.5,N
1568925335.9,286047000.5,N
1568925355.8,286047000.7,N
1568925375.6,286047002.0,N
1568925395.5,286047003.1,N
1568925415.3,286047002.9,N
1568925435.1,286047005.0,Y
1568925455.9,286047005.9,P
1568925475.7,286047001.3,N
1568925495.5,286047001.9,N
1568925515.4,286047001.5,N
1568925535.2,286047003.9,N
1568925555.1,286047003.4,N
1568925556.0,286047003.4,N
1568925575.8,286047003.2,N
1568925595.6,286047004.0,N
1568925615.5,286047003.2,N
1568925635.3,286047006.0,Y
1568925655.2,286047002.3,P
1568925675.9,286046999.9,N
1568925695.7,286046999.8,N
1568925715.6,286047000.9,N
1568925735.4,286047000.1,N
1568925755.2,286047002.6,N
1568925775.1,286047001.7,N
1568925776.0,286047001.7,N
1568925795.8,286047002.2,N
1568925815.7,286046999.7,N
1568925835.5,286047000.3,N
1568925855.3,286047000.4,N
1568925875.2,286047000.7,N
1568925895.0,286047000.9,N
1568925895.9,286047000.9,N
1568925915.8,286047000.1,N
1568925935.6,286046999.9,N
1568925955.4,286047000.9,N
1568925975.3,286047000.7,N
1568925995.1,286046998.7,N
1568926015.8,286046996.6,Y
1568926035.7,286046997.8,P
1568926055.5,286046995.4,P
1568926075.4,286046995.0,N
1568926095.2,286046995.6,N
1568926115.0,286046995.7,N
1568926115.9,286046995.7,N
1568926135.8,286046993.3,Y
1568926155.6,286046999.6,P
1568926175.5,286046995.3,P
1568926195.3,286046997.7,N
1568926215.1,286046997.2,N
1568926235.9,286046997.4,N
1568926255.7,286046997.1,N
1568926275.5,286046997.6,N
1568926295.4,286046995.3,Y
1568926315.2,286047001.1,P
1568926335.1,286046999.0,N
1568926336.0,286046999.0,N
1568926355.8,286046996.8,N
1568926375.7,286046997.5,N
1568926395.5,286046995.8,N
1568926415.3,286046995.3,N
1568926435.2,286046997.9,N
1568926455.9,286046997.7,N
1568926475.7,286046998.7,N
1568926495.6,286047000.9,N
1568926515.4,286047000.8,N
1568926535.3,286046998.3,N
1568926555.1,286047000.8,N
1568926556.0,286047000.8,N
1568926575.8,286047000.8,N
1568926595.7,286046998.2,N
1568926615.5,286046999.5,N
1568926635.4,286046998.3,N
1568926655.2,286047000.4,N
1568926675.0,286047002.3,N
1568926675.9,286047002.3,N
1568926695.8,286047002.4,N
1568926715.6,286047001.1,N
1568926735.4,286046998.3,N
1568926755.3,286046996.5,N
1568926775.1,286046999.1,N
1568926795.9,286046997.7,N
